Tracking 28799 objects as of 18-Apr-2024
HD Live streaming from Space Station
objects crossing your sky now

SSU 1

Track SSU 1 now!
10-day predictions
SSU 1 is classified as:


NORAD ID: 8835
Int'l Code: 1976-038C
Perigee: 620.0 km
Apogee: 1,306.7 km
Inclination: 63.4 °
Period: 104.2 minutes
Semi major axis: 7334 km
RCS: Unknown
Launch date: April 30, 1976
Source: United States (US)
Launch site: AIR FORCE WESTERN TEST RANGE (AFWTR)
Your satellite tracking list
Your tracking list is empty




NASA's NSSDC Master Catalog

Two Line Element Set (TLE):
1 08835U 76038C   24108.79158344  .00001772  00000-0  75126-3 0  9995
2 08835  63.3511 277.8749 0468148 169.7588 191.3417 13.82159370249521
Source of the keplerian elements: McCants